Location: Henham
(51.9333°N, 0.2500°E)
Time: 20:55:47
(UTC+00:00)

STARLINK-42 - Pass Details

Date: 23 October 2019
Orbit: 548 x 551 km, 53.0° (Epoch: 18 November)

Event Time Altitude Azimuth Distance (km) Brightness Sun altitude
Rises 17:50:11 0° 275° (W) 2,719 9.1 -10.1°
Reaches altitude 10° 17:52:26 10° 277° (W) 1,825 7.7 -10.4°
Maximum altitude 17:56:35 76° 4° (N) 571 3.6 -11.0°
Enters shadow 17:59:42 17° 89° (E) 1,425 5.1 -11.5°
